Location: East Guldeford
(50.9500°N, 0.7500°E)
Time: 09:39:21
(UTC+00:00)

Cosmos 1707 Rocket - Pass Details

Date: 12 May 2021
Orbit: 605 x 631 km, 82.5° (Epoch: 16 June)

Event Time Altitude Azimuth Distance (km) Brightness Sun altitude
Exits shadow 22:49:37 28° 219° (SW) 1,174 4.7 -19.3°
Maximum altitude 22:51:44 54° 284° (WNW) 758 4.1 -19.4°
Drops below altitude 10° 22:56:05 10° 2° (N) 2,005 7.3 -19.5°
Sets 22:58:23 0° 8° (N) 2,921 8.3 -19.6°
